Time,TemperatureF,DewpointF,PressureIn,WindDirection,WindDirectionDegrees,WindSpeedMPH,WindSpeedGustMPH,Humidity,HourlyPrecipIn,Conditions,Clouds,dailyrainin,SoftwareType,DateUTC
2013-06-14 00:00:00,79.4,70.4,29.75,ESE,112,9.0,35.0,74,0.03,,---,0.00,VWS V14.01,2013-06-14 04:00:00,
2013-06-14 00:01:00,78.2,70.4,29.75,NE,39,2.0,12.0,77,0.04,,---,0.01,VWS V14.01,2013-06-14 04:01:00,
2013-06-14 00:02:00,77.6,70.2,29.75,ENE,59,4.0,12.0,78,0.04,,---,0.01,VWS V14.01,2013-06-14 04:02:00,
2013-06-14 00:07:00,75.9,69.3,29.73,NE,49,2.0,12.0,80,0.06,,---,0.03,VWS V14.01,2013-06-14 04:07:00,
2013-06-14 00:12:00,74.9,69.0,29.73,NE,51,2.0,12.0,82,0.06,,---,0.03,VWS V14.01,2013-06-14 04:12:00,
2013-06-14 00:17:00,74.5,69.0,29.73,East,87,0.0,12.0,83,0.06,,---,0.03,VWS V14.01,2013-06-14 04:17:00,
2013-06-14 00:22:00,74.0,68.9,29.73,ESE,115,0.0,12.0,84,0.06,,---,0.03,VWS V14.01,2013-06-14 04:22:00,
2013-06-14 00:27:00,73.7,68.9,29.73,East,100,0.0,12.0,85,0.06,,---,0.03,VWS V14.01,2013-06-14 04:27:00,
2013-06-14 00:30:00,73.6,69.2,29.74,South,184,0.0,12.0,86,0.06,,---,0.03,VWS V14.01,2013-06-14 04:30:00,
2013-06-14 00:32:00,73.4,69.0,29.74,South,179,0.0,1.0,86,0.06,,---,0.03,VWS V14.01,2013-06-14 04:32:00,
2013-06-14 00:37:00,73.2,69.1,29.74,ENE,57,0.0,1.0,87,0.06,,---,0.03,VWS V14.01,2013-06-14 04:37:00,
2013-06-14 00:42:00,73.0,68.9,29.74,SSE,148,0.0,1.0,87,0.06,,---,0.03,VWS V14.01,2013-06-14 04:42:00,
2013-06-14 00:47:00,72.8,68.7,29.74,East,94,0.0,3.0,87,0.06,,---,0.03,VWS V14.01,2013-06-14 04:47:00,
2013-06-14 00:52:00,72.9,68.8,29.74,East,99,0.0,3.0,87,0.06,,---,0.03,VWS V14.01,2013-06-14 04:52:00,
2013-06-14 00:57:00,72.8,68.7,29.74,SE,130,0.0,3.0,87,0.06,,---,0.03,VWS V14.01,2013-06-14 04:57:00,
2013-06-14 01:00:00,72.7,68.6,29.74,ESE,119,0.0,3.0,87,0.06,,---,0.03,VWS V14.01,2013-06-14 05:00:00,
2013-06-14 01:02:00,72.6,68.5,29.73,ESE,118,0.0,1.0,87,0.03,,---,0.03,VWS V14.01,2013-06-14 05:02:00,
2013-06-14 01:07:00,72.5,68.4,29.74,East,100,0.0,1.0,87,0.03,,---,0.03,VWS V14.01,2013-06-14 05:07:00,
2013-06-14 01:12:00,72.6,68.8,29.74,ESE,119,0.0,1.0,88,0.03,,---,0.03,VWS V14.01,2013-06-14 05:12:00,
2013-06-14 01:17:00,72.5,68.8,29.74,SE,140,0.0,4.0,88,0.03,,---,0.03,VWS V14.01,2013-06-14 05:17:00,
2013-06-14 01:22:00,72.6,68.8,29.74,East,84,0.0,5.0,88,0.03,,---,0.03,VWS V14.01,2013-06-14 05:22:00,
2013-06-14 01:27:00,72.7,68.9,29.74,ESE,115,0.0,5.0,88,0.03,,---,0.03,VWS V14.01,2013-06-14 05:27:00,
2013-06-14 01:30:00,72.8,69.0,29.74,ESE,115,0.0,5.0,88,0.03,,---,0.03,VWS V14.01,2013-06-14 05:30:00,
2013-06-14 01:32:00,72.8,69.4,29.74,ESE,113,0.0,1.0,89,0.00,,---,0.03,VWS V14.01,2013-06-14 05:32:00,
2013-06-14 01:37:00,72.8,69.4,29.75,ESE,109,0.0,1.0,89,0.00,,---,0.03,VWS V14.01,2013-06-14 05:37:00,
2013-06-14 01:42:00,72.9,69.5,29.76,NE,42,0.0,1.0,89,0.00,,---,0.03,VWS V14.01,2013-06-14 05:42:00,
2013-06-14 01:47:00,72.8,69.4,29.76,NE,45,0.0,1.0,89,0.00,,---,0.03,VWS V14.01,2013-06-14 05:47:00,
2013-06-14 01:52:00,72.9,69.8,29.75,NE,46,0.0,1.0,90,0.00,,---,0.03,VWS V14.01,2013-06-14 05:52:00,
2013-06-14 01:57:00,73.1,70.0,29.75,ENE,67,0.0,1.0,90,0.00,,---,0.03,VWS V14.01,2013-06-14 05:57:00,
2013-06-14 02:00:00,73.1,70.0,29.75,ENE,67,0.0,1.0,90,0.00,,---,0.03,VWS V14.01,2013-06-14 06:00:00,
2013-06-14 02:02:00,73.2,70.1,29.75,ENE,67,0.0,1.0,90,0.00,,---,0.03,VWS V14.01,2013-06-14 06:02:00,
2013-06-14 02:07:00,73.3,70.2,29.75,ENE,67,0.0,1.0,90,0.00,,---,0.03,VWS V14.01,2013-06-14 06:07:00,
2013-06-14 02:12:00,73.3,70.2,29.75,ENE,67,0.0,1.0,90,0.00,,---,0.03,VWS V14.01,2013-06-14 06:12:00,
2013-06-14 02:17:00,73.3,70.2,29.75,ENE,66,0.0,1.0,90,0.00,,---,0.03,VWS V14.01,2013-06-14 06:17:00,
2013-06-14 02:22:00,73.2,70.1,29.75,NE,56,0.0,1.0,90,0.00,,---,0.03,VWS V14.01,2013-06-14 06:22:00,
2013-06-14 02:27:00,73.2,70.1,29.75,NE,53,0.0,1.0,90,0.00,,---,0.03,VWS V14.01,2013-06-14 06:27:00,
2013-06-14 02:30:00,73.2,70.1,29.75,ENE,57,0.0,1.0,90,0.00,,---,0.03,VWS V14.01,2013-06-14 06:30:00,
2013-06-14 02:32:00,73.2,70.1,29.75,ENE,64,0.0,1.0,90,0.00,,---,0.03,VWS V14.01,2013-06-14 06:32:00,
2013-06-14 02:37:00,73.2,70.1,29.75,ENE,67,0.0,4.0,90,0.00,,---,0.03,VWS V14.01,2013-06-14 06:37:00,
2013-06-14 02:42:00,73.2,70.1,29.75,ENE,64,0.0,4.0,90,0.00,,---,0.03,VWS V14.01,2013-06-14 06:42:00,
2013-06-14 02:47:00,73.1,70.0,29.75,ENE,65,0.0,4.0,90,0.00,,---,0.03,VWS V14.01,2013-06-14 06:47:00,
2013-06-14 02:52:00,73.2,70.1,29.75,ENE,64,0.0,4.0,90,0.00,,---,0.03,VWS V14.01,2013-06-14 06:52:00,
2013-06-14 02:57:00,73.2,70.1,29.75,ENE,61,0.0,4.0,90,0.00,,---,0.03,VWS V14.01,2013-06-14 06:57:00,
2013-06-14 03:00:00,73.2,70.1,29.75,ENE,61,0.0,4.0,90,0.00,,---,0.03,VWS V14.01,2013-06-14 07:00:00,
2013-06-14 03:02:00,73.2,70.1,29.75,ENE,61,0.0,1.0,90,0.00,,---,0.03,VWS V14.01,2013-06-14 07:02:00,
2013-06-14 03:07:00,73.2,70.1,29.75,ENE,61,0.0,1.0,90,0.00,,---,0.03,VWS V14.01,2013-06-14 07:07:00,
2013-06-14 03:12:00,73.1,70.0,29.74,ENE,61,0.0,1.0,90,0.00,,---,0.03,VWS V14.01,2013-06-14 07:12:00,
2013-06-14 03:17:00,73.2,70.1,29.74,ENE,61,0.0,3.0,90,0.00,,---,0.03,VWS V14.01,2013-06-14 07:17:00,
2013-06-14 03:22:00,73.2,70.1,29.74,ENE,70,0.0,3.0,90,0.00,,---,0.03,VWS V14.01,2013-06-14 07:22:00,
2013-06-14 03:27:00,73.2,70.1,29.74,ENE,70,0.0,3.0,90,0.00,,---,0.03,VWS V14.01,2013-06-14 07:27:00,
2013-06-14 03:30:00,73.1,70.0,29.74,ENE,70,0.0,3.0,90,0.00,,---,0.03,VWS V14.01,2013-06-14 07:30:00,
2013-06-14 03:32:00,73.1,70.0,29.74,ENE,70,0.0,0.0,90,0.00,,---,0.03,VWS V14.01,2013-06-14 07:32:00,
2013-06-14 03:37:00,73.0,70.2,29.74,ENE,70,0.0,0.0,91,0.00,,---,0.03,VWS V14.01,2013-06-14 07:37:00,
2013-06-14 03:42:00,73.0,70.2,29.74,ENE,70,0.0,0.0,91,0.00,,---,0.03,VWS V14.01,2013-06-14 07:42:00,
2013-06-14 03:47:00,72.9,70.1,29.74,ENE,70,0.0,1.0,91,0.00,,---,0.03,VWS V14.01,2013-06-14 07:47:00,
2013-06-14 03:52:00,72.9,70.1,29.74,ENE,70,0.0,1.0,91,0.00,,---,0.03,VWS V14.01,2013-06-14 07:52:00,
2013-06-14 03:57:00,72.9,70.1,29.74,ENE,70,0.0,1.0,91,0.00,,---,0.03,VWS V14.01,2013-06-14 07:57:00,
2013-06-14 04:00:00,72.9,70.1,29.75,ENE,70,0.0,1.0,91,0.00,,---,0.03,VWS V14.01,2013-06-14 08:00:00,
2013-06-14 04:02:00,72.9,70.1,29.75,ENE,70,0.0,0.0,91,0.00,,---,0.03,VWS V14.01,2013-06-14 08:02:00,
2013-06-14 04:07:00,73.0,70.2,29.75,ENE,70,0.0,1.0,91,0.00,,---,0.03,VWS V14.01,2013-06-14 08:07:00,
2013-06-14 04:12:00,73.0,70.2,29.75,ENE,71,0.0,1.0,91,0.00,,---,0.03,VWS V14.01,2013-06-14 08:12:00,
2013-06-14 04:17:00,72.9,70.1,29.75,ENE,71,0.0,1.0,91,0.00,,---,0.03,VWS V14.01,2013-06-14 08:17:00,
2013-06-14 04:22:00,73.0,69.9,29.75,ENE,71,0.0,1.0,90,0.00,,---,0.03,VWS V14.01,2013-06-14 08:22:00,
2013-06-14 04:27:00,73.1,70.0,29.75,ENE,71,0.0,1.0,90,0.00,,---,0.03,VWS V14.01,2013-06-14 08:27:00,
2013-06-14 04:30:00,73.1,70.0,29.75,ENE,71,0.0,1.0,90,0.00,,---,0.03,VWS V14.01,2013-06-14 08:30:00,
2013-06-14 04:32:00,73.1,69.7,29.76,East,92,0.0,1.0,89,0.00,,---,0.03,VWS V14.01,2013-06-14 08:32:00,
2013-06-14 04:37:00,73.2,69.8,29.75,SE,146,3.0,4.0,89,0.00,,---,0.03,VWS V14.01,2013-06-14 08:37:00,
2013-06-14 04:42:00,73.2,69.4,29.76,SSE,148,0.0,4.0,88,0.00,,---,0.03,VWS V14.01,2013-06-14 08:42:00,
2013-06-14 04:47:00,73.2,69.4,29.76,SSE,148,0.0,4.0,88,0.00,,---,0.03,VWS V14.01,2013-06-14 08:47:00,
2013-06-14 04:52:00,73.2,69.1,29.76,SSE,148,0.0,4.0,87,0.00,,---,0.03,VWS V14.01,2013-06-14 08:52:00,
2013-06-14 04:57:00,73.1,69.0,29.76,SSE,148,1.0,4.0,87,0.01,,---,0.04,VWS V14.01,2013-06-14 08:57:00,
2013-06-14 05:00:00,73.1,69.0,29.76,SSE,148,0.0,4.0,87,0.01,,---,0.04,VWS V14.01,2013-06-14 09:00:00,
2013-06-14 05:02:00,73.0,68.9,29.76,SE,129,0.0,7.0,87,0.01,,---,0.04,VWS V14.01,2013-06-14 09:02:00,
2013-06-14 05:07:00,73.0,68.6,29.77,SE,134,0.0,7.0,86,0.01,,---,0.04,VWS V14.01,2013-06-14 09:07:00,
2013-06-14 05:12:00,72.8,68.4,29.77,SSE,166,0.0,7.0,86,0.01,,---,0.04,VWS V14.01,2013-06-14 09:12:00,
2013-06-14 05:17:00,72.7,67.9,29.77,ESE,123,2.0,7.0,85,0.01,,---,0.04,VWS V14.01,2013-06-14 09:17:00,
2013-06-14 05:22:00,72.6,67.8,29.77,SSE,150,0.0,9.0,85,0.01,,---,0.04,VWS V14.01,2013-06-14 09:22:00,
2013-06-14 05:27:00,72.6,67.5,29.77,SE,145,0.0,9.0,84,0.01,,---,0.04,VWS V14.01,2013-06-14 09:27:00,
2013-06-14 05:30:00,72.6,67.5,29.78,SE,126,0.0,9.0,84,0.01,,---,0.04,VWS V14.01,2013-06-14 09:30:00,
2013-06-14 05:32:00,72.4,66.9,29.78,ESE,107,0.0,4.0,83,0.01,,---,0.04,VWS V14.01,2013-06-14 09:32:00,
2013-06-14 05:37:00,72.3,66.8,29.78,ESE,117,0.0,4.0,83,0.01,,---,0.04,VWS V14.01,2013-06-14 09:37:00,
2013-06-14 05:42:00,72.1,66.3,29.78,South,188,0.0,4.0,82,0.01,,---,0.04,VWS V14.01,2013-06-14 09:42:00,
2013-06-14 05:47:00,72.0,66.2,29.78,SE,128,0.0,4.0,82,0.01,,---,0.04,VWS V14.01,2013-06-14 09:47:00,
2013-06-14 05:52:00,71.8,66.0,29.79,SE,132,0.0,5.0,82,0.01,,---,0.04,VWS V14.01,2013-06-14 09:52:00,
2013-06-14 05:57:00,71.6,65.8,29.79,SE,142,1.0,5.0,82,0.01,,---,0.04,VWS V14.01,2013-06-14 09:57:00,
2013-06-14 06:00:00,71.6,65.5,29.79,SSE,149,2.0,7.0,81,0.01,,---,0.04,VWS V14.01,2013-06-14 10:00:00,
2013-06-14 06:02:00,71.5,65.4,29.79,SSE,148,0.0,5.0,81,0.00,,---,0.04,VWS V14.01,2013-06-14 10:02:00,
2013-06-14 06:08:00,71.4,65.3,29.80,SSE,166,0.0,5.0,81,0.00,,---,0.04,VWS V14.01,2013-06-14 10:08:00,
2013-06-14 06:13:00,71.3,65.2,29.80,ESE,107,0.0,7.0,81,0.00,,---,0.04,VWS V14.01,2013-06-14 10:13:00,
2013-06-14 06:18:00,71.2,64.4,29.80,SE,146,2.0,7.0,79,0.00,,---,0.04,VWS V14.01,2013-06-14 10:18:00,
2013-06-14 06:23:00,71.2,64.0,29.81,SE,143,0.0,7.0,78,0.00,,---,0.04,VWS V14.01,2013-06-14 10:23:00,
2013-06-14 06:28:00,71.1,63.5,29.81,SE,145,0.0,7.0,77,0.00,,---,0.04,VWS V14.01,2013-06-14 10:28:00,
2013-06-14 06:30:00,71.1,63.5,29.81,SE,138,0.0,7.0,77,0.00,,---,0.04,VWS V14.01,2013-06-14 10:30:00,
2013-06-14 06:33:00,71.0,63.8,29.81,SE,146,0.0,4.0,78,0.00,,---,0.04,VWS V14.01,2013-06-14 10:33:00,
2013-06-14 06:38:00,70.8,63.2,29.81,SSE,155,0.0,4.0,77,0.00,,---,0.04,VWS V14.01,2013-06-14 10:38:00,
2013-06-14 06:43:00,70.6,63.0,29.81,SSE,150,0.0,4.0,77,0.00,,---,0.04,VWS V14.01,2013-06-14 10:43:00,
2013-06-14 06:48:00,70.6,63.0,29.82,SSE,155,0.0,4.0,77,0.00,,---,0.04,VWS V14.01,2013-06-14 10:48:00,
2013-06-14 06:53:00,70.4,62.5,29.82,SSE,156,0.0,4.0,76,0.00,,---,0.04,VWS V14.01,2013-06-14 10:53:00,
2013-06-14 06:58:00,70.4,62.8,29.82,SSE,148,0.0,4.0,77,0.00,,---,0.04,VWS V14.01,2013-06-14 10:58:00,
2013-06-14 07:00:00,70.4,62.8,29.82,SSE,148,0.0,4.0,77,0.00,,---,0.04,VWS V14.01,2013-06-14 11:00:00,
2013-06-14 07:03:00,70.4,62.5,29.83,SSE,148,0.0,1.0,76,0.00,,---,0.04,VWS V14.01,2013-06-14 11:03:00,
2013-06-14 07:08:00,70.3,62.8,29.83,SSE,148,0.0,1.0,77,0.00,,---,0.04,VWS V14.01,2013-06-14 11:08:00,
2013-06-14 07:13:00,70.4,63.2,29.83,SE,146,0.0,1.0,78,0.00,,---,0.04,VWS V14.01,2013-06-14 11:13:00,
2013-06-14 07:18:00,70.4,62.5,29.83,SE,134,0.0,3.0,76,0.00,,---,0.04,VWS V14.01,2013-06-14 11:18:00,
2013-06-14 07:23:00,70.5,62.6,29.83,SE,139,0.0,5.0,76,0.00,,---,0.04,VWS V14.01,2013-06-14 11:23:00,
2013-06-14 07:28:00,70.6,62.3,29.83,SE,132,0.0,5.0,75,0.00,,---,0.04,VWS V14.01,2013-06-14 11:28:00,
2013-06-14 07:30:00,70.7,62.8,29.83,SE,132,0.0,5.0,76,0.00,,---,0.04,VWS V14.01,2013-06-14 11:30:00,
2013-06-14 07:33:00,70.7,62.4,29.83,SE,132,0.0,1.0,75,0.00,,---,0.04,VWS V14.01,2013-06-14 11:33:00,
2013-06-14 07:38:00,70.8,61.3,29.83,SSE,150,0.0,1.0,72,0.00,,---,0.04,VWS V14.01,2013-06-14 11:38:00,
2013-06-14 07:43:00,71.0,61.5,29.84,SE,127,1.0,6.0,72,0.00,,---,0.04,VWS V14.01,2013-06-14 11:43:00,
2013-06-14 07:48:00,71.3,61.8,29.83,East,79,0.0,6.0,72,0.00,,---,0.04,VWS V14.01,2013-06-14 11:48:00,
2013-06-14 07:53:00,71.7,61.4,29.84,SE,131,2.0,6.0,70,0.00,,---,0.04,VWS V14.01,2013-06-14 11:53:00,
2013-06-14 07:58:00,71.8,61.5,29.84,ENE,62,0.0,6.0,70,0.00,,---,0.04,VWS V14.01,2013-06-14 11:58:00,
2013-06-14 08:00:00,71.9,61.6,29.84,ENE,63,0.0,6.0,70,0.00,,---,0.04,VWS V14.01,2013-06-14 12:00:00,
2013-06-14 08:03:00,72.0,61.7,29.83,SE,128,4.0,4.0,70,0.00,,---,0.04,VWS V14.01,2013-06-14 12:03:00,
2013-06-14 08:08:00,72.2,61.9,29.84,ESE,112,1.0,6.0,70,0.00,,---,0.04,VWS V14.01,2013-06-14 12:08:00,
2013-06-14 08:13:00,72.4,61.7,29.84,SE,127,0.0,6.0,69,0.00,,---,0.04,VWS V14.01,2013-06-14 12:13:00,
2013-06-14 08:18:00,72.6,61.9,29.84,South,179,0.0,6.0,69,0.00,,---,0.04,VWS V14.01,2013-06-14 12:18:00,
2013-06-14 08:23:00,72.8,62.5,29.84,SSE,150,0.0,6.0,70,0.00,,---,0.04,VWS V14.01,2013-06-14 12:23:00,
2013-06-14 08:28:00,73.2,62.0,29.84,South,170,0.0,7.0,68,0.00,,---,0.04,VWS V14.01,2013-06-14 12:28:00,
2013-06-14 08:30:00,73.2,62.0,29.84,SSE,149,2.0,7.0,68,0.00,,---,0.04,VWS V14.01,2013-06-14 12:30:00,
2013-06-14 08:33:00,73.4,61.8,29.84,SE,131,0.0,5.0,67,0.00,,---,0.04,VWS V14.01,2013-06-14 12:33:00,
2013-06-14 08:38:00,73.7,61.7,29.84,SE,134,1.0,5.0,66,0.00,,---,0.04,VWS V14.01,2013-06-14 12:38:00,
2013-06-14 08:43:00,73.8,60.9,29.84,SSE,148,2.0,12.0,64,0.00,,---,0.04,VWS V14.01,2013-06-14 12:43:00,
2013-06-14 08:48:00,74.1,61.2,29.84,South,172,3.0,12.0,64,0.00,,---,0.04,VWS V14.01,2013-06-14 12:48:00,
2013-06-14 08:53:00,74.3,61.3,29.85,ESE,111,0.0,12.0,64,0.00,,---,0.04,VWS V14.01,2013-06-14 12:53:00,
2013-06-14 08:58:00,74.9,61.9,29.85,SSE,163,4.0,12.0,64,0.00,,---,0.04,VWS V14.01,2013-06-14 12:58:00,
2013-06-14 09:00:00,75.0,61.1,29.85,East,88,0.0,12.0,62,0.00,,---,0.04,VWS V14.01,2013-06-14 13:00:00,
2013-06-14 09:03:00,75.1,61.7,29.85,ENE,75,3.0,4.0,63,0.00,,---,0.04,VWS V14.01,2013-06-14 13:03:00,
2013-06-14 09:08:00,75.5,61.1,29.85,East,82,2.0,10.0,61,0.00,,---,0.04,VWS V14.01,2013-06-14 13:08:00,
2013-06-14 09:13:00,75.6,60.8,29.85,East,101,0.0,10.0,60,0.00,,---,0.04,VWS V14.01,2013-06-14 13:13:00,
2013-06-14 09:18:00,75.8,60.5,29.85,ESE,102,4.0,10.0,59,0.00,,---,0.04,VWS V14.01,2013-06-14 13:18:00,
2013-06-14 09:23:00,76.0,60.2,29.85,South,171,4.0,10.0,58,0.00,,---,0.04,VWS V14.01,2013-06-14 13:23:00,
2013-06-14 09:28:00,76.1,59.8,29.85,SE,128,0.0,10.0,57,0.00,,---,0.04,VWS V14.01,2013-06-14 13:28:00,
2013-06-14 09:30:00,76.1,59.8,29.85,East,82,6.0,10.0,57,0.00,,---,0.04,VWS V14.01,2013-06-14 13:30:00,
2013-06-14 09:33:00,76.3,60.0,29.85,ESE,105,0.0,11.0,57,0.00,,---,0.04,VWS V14.01,2013-06-14 13:33:00,
2013-06-14 09:38:00,76.6,59.8,29.85,South,171,2.0,11.0,56,0.00,,---,0.04,VWS V14.01,2013-06-14 13:38:00,
2013-06-14 09:43:00,76.6,59.2,29.86,East,94,3.0,11.0,55,0.00,,---,0.04,VWS V14.01,2013-06-14 13:43:00,
2013-06-14 09:48:00,76.6,60.2,29.85,SSE,164,6.0,14.0,57,0.00,,---,0.04,VWS V14.01,2013-06-14 13:48:00,
2013-06-14 09:53:00,76.7,60.3,29.85,SE,146,1.0,14.0,57,0.00,,---,0.04,VWS V14.01,2013-06-14 13:53:00,
2013-06-14 09:58:00,77.2,60.8,29.85,SSE,162,0.0,14.0,57,0.00,,---,0.04,VWS V14.01,2013-06-14 13:58:00,
2013-06-14 10:00:00,77.2,60.8,29.85,SE,142,1.0,14.0,57,0.00,,---,0.04,VWS V14.01,2013-06-14 14:00:00,
2013-06-14 10:03:00,77.6,59.1,29.85,SE,128,8.0,13.0,53,0.00,,---,0.04,VWS V14.01,2013-06-14 14:03:00,
2013-06-14 10:08:00,77.4,59.0,29.85,SSE,167,4.0,13.0,53,0.00,,---,0.04,VWS V14.01,2013-06-14 14:08:00,
2013-06-14 10:13:00,77.6,59.1,29.85,ESE,114,0.0,13.0,53,0.00,,---,0.04,VWS V14.01,2013-06-14 14:13:00,
2013-06-14 10:18:00,78.1,59.6,29.86,SSE,162,9.0,13.0,53,0.00,,---,0.04,VWS V14.01,2013-06-14 14:18:00,
2013-06-14 10:23:00,78.0,59.5,29.86,SSE,148,1.0,13.0,53,0.00,,---,0.04,VWS V14.01,2013-06-14 14:23:00,
2013-06-14 10:29:00,78.2,59.7,29.86,ESE,103,0.0,13.0,53,0.00,,---,0.04,VWS V14.01,2013-06-14 14:29:00,
2013-06-14 10:30:00,78.2,59.7,29.86,SE,144,5.0,13.0,53,0.00,,---,0.04,VWS V14.01,2013-06-14 14:30:00,
2013-06-14 10:34:00,78.3,59.2,29.86,SE,139,2.0,14.0,52,0.00,,---,0.04,VWS V14.01,2013-06-14 14:34:00,
2013-06-14 10:39:00,78.4,59.3,29.86,SE,139,6.0,14.0,52,0.00,,---,0.04,VWS V14.01,2013-06-14 14:39:00,
2013-06-14 10:44:00,78.5,59.4,29.86,SSE,164,4.0,14.0,52,0.00,,---,0.04,VWS V14.01,2013-06-14 14:44:00,
2013-06-14 10:49:00,78.9,60.3,29.86,ENE,73,0.0,14.0,53,0.00,,---,0.04,VWS V14.01,2013-06-14 14:49:00,
2013-06-14 10:54:00,79.2,60.1,29.86,SSE,150,5.0,14.0,52,0.00,,---,0.04,VWS V14.01,2013-06-14 14:54:00,
2013-06-14 10:59:00,78.8,59.7,29.86,SSE,159,4.0,14.0,52,0.00,,---,0.04,VWS V14.01,2013-06-14 14:59:00,
2013-06-14 11:00:00,78.8,59.7,29.86,SE,138,3.0,14.0,52,0.00,,---,0.04,VWS V14.01,2013-06-14 15:00:00,
2013-06-14 11:04:00,78.7,59.6,29.87,SSE,163,1.0,14.0,52,0.00,,---,0.04,VWS V14.01,2013-06-14 15:04:00,
2013-06-14 11:09:00,78.7,59.6,29.87,SE,127,2.0,14.0,52,0.00,,---,0.04,VWS V14.01,2013-06-14 15:09:00,
2013-06-14 11:14:00,79.3,60.2,29.87,SW,221,0.0,14.0,52,0.00,,---,0.04,VWS V14.01,2013-06-14 15:14:00,
2013-06-14 11:19:00,79.7,60.5,29.87,SE,129,0.0,14.0,52,0.00,,---,0.04,VWS V14.01,2013-06-14 15:19:00,
2013-06-14 11:24:00,79.7,60.0,29.87,SSE,152,0.0,14.0,51,0.00,,---,0.04,VWS V14.01,2013-06-14 15:24:00,
2013-06-14 11:29:00,79.7,60.0,29.87,East,82,3.0,14.0,51,0.00,,---,0.04,VWS V14.01,2013-06-14 15:29:00,
2013-06-14 11:30:00,79.7,60.0,29.87,East,82,3.0,14.0,51,0.00,,---,0.04,VWS V14.01,2013-06-14 15:30:00,
2013-06-14 11:34:00,79.6,60.4,29.87,SE,146,1.0,9.0,52,0.00,,---,0.04,VWS V14.01,2013-06-14 15:34:00,
2013-06-14 11:39:00,80.0,59.7,29.86,SSE,163,4.0,13.0,50,0.00,,---,0.04,VWS V14.01,2013-06-14 15:39:00,
2013-06-14 11:44:00,80.1,59.8,29.87,East,80,6.0,13.0,50,0.00,,---,0.04,VWS V14.01,2013-06-14 15:44:00,
2013-06-14 11:49:00,80.5,61.3,29.86,SE,142,0.0,13.0,52,0.00,,---,0.04,VWS V14.01,2013-06-14 15:49:00,
2013-06-14 11:54:00,80.7,59.8,29.87,SSE,159,6.0,13.0,49,0.00,,---,0.04,VWS V14.01,2013-06-14 15:54:00,
2013-06-14 11:59:00,80.1,59.8,29.86,SE,133,0.0,0.0,50,0.00,,---,0.04,VWS V14.01,2013-06-14 15:59:00,
2013-06-14 12:00:00,80.1,59.8,29.86,SSE,156,0.0,13.0,50,0.00,,---,0.04,VWS V14.01,2013-06-14 16:00:00,
2013-06-14 12:04:00,80.3,60.0,29.87,SE,142,0.0,8.0,50,0.00,,---,0.04,VWS V14.01,2013-06-14 16:04:00,
2013-06-14 12:09:00,81.0,60.6,29.87,NE,41,1.0,8.0,50,0.00,,---,0.04,VWS V14.01,2013-06-14 16:09:00,
2013-06-14 12:14:00,80.9,60.5,29.87,SE,141,0.0,9.0,50,0.00,,---,0.04,VWS V14.01,2013-06-14 16:14:00,
2013-06-14 12:19:00,81.1,61.3,29.87,SE,132,4.0,9.0,51,0.00,,---,0.04,VWS V14.01,2013-06-14 16:19:00,
2013-06-14 12:24:00,80.9,60.0,29.87,SSE,166,1.0,10.0,49,0.00,,---,0.04,VWS V14.01,2013-06-14 16:24:00,
2013-06-14 12:29:00,80.7,59.8,29.87,SE,136,6.0,6.0,49,0.00,,---,0.04,VWS V14.01,2013-06-14 16:29:00,
2013-06-14 12:30:00,80.7,59.8,29.87,SSW,195,6.0,14.0,49,0.00,,---,0.04,VWS V14.01,2013-06-14 16:30:00,
2013-06-14 12:34:00,80.9,60.0,29.87,SSE,150,3.0,8.0,49,0.00,,---,0.04,VWS V14.01,2013-06-14 16:34:00,
2013-06-14 12:39:00,81.5,60.5,29.87,SE,128,0.0,9.0,49,0.00,,---,0.04,VWS V14.01,2013-06-14 16:39:00,
2013-06-14 12:44:00,81.6,61.2,29.87,ENE,77,9.0,11.0,50,0.00,,---,0.04,VWS V14.01,2013-06-14 16:44:00,
2013-06-14 12:49:00,81.9,60.9,29.87,ESE,104,0.0,11.0,49,0.00,,---,0.04,VWS V14.01,2013-06-14 16:49:00,
2013-06-14 12:54:00,82.0,59.2,29.88,SE,138,7.0,13.0,46,0.00,,---,0.04,VWS V14.01,2013-06-14 16:54:00,
2013-06-14 12:59:00,81.8,60.2,29.87,SE,144,0.0,1.0,48,0.00,,---,0.04,VWS V14.01,2013-06-14 16:59:00,
2013-06-14 13:00:00,81.8,60.2,29.88,SE,137,0.0,13.0,48,0.00,,---,0.04,VWS V14.01,2013-06-14 17:00:00,
2013-06-14 13:04:00,81.7,60.1,29.88,ESE,109,3.0,8.0,48,0.00,,---,0.04,VWS V14.01,2013-06-14 17:04:00,
2013-06-14 13:09:00,82.0,59.2,29.87,SE,146,8.0,11.0,46,0.00,,---,0.04,VWS V14.01,2013-06-14 17:09:00,
2013-06-14 13:14:00,82.3,59.5,29.87,ESE,119,4.0,11.0,46,0.00,,---,0.04,VWS V14.01,2013-06-14 17:14:00,
2013-06-14 13:19:00,82.5,60.3,29.87,SE,135,2.0,11.0,47,0.00,,---,0.04,VWS V14.01,2013-06-14 17:19:00,
2013-06-14 13:24:00,82.5,59.7,29.87,ESE,111,3.0,11.0,46,0.00,,---,0.04,VWS V14.01,2013-06-14 17:24:00,
2013-06-14 13:29:00,82.9,60.6,29.87,SSE,153,6.0,7.0,47,0.00,,---,0.04,VWS V14.01,2013-06-14 17:29:00,
2013-06-14 13:30:00,82.9,60.6,29.87,South,177,6.0,11.0,47,0.00,,---,0.04,VWS V14.01,2013-06-14 17:30:00,
2013-06-14 13:34:00,82.4,59.6,29.86,NE,56,0.0,14.0,46,0.00,,---,0.04,VWS V14.01,2013-06-14 17:34:00,
2013-06-14 13:39:00,82.9,60.0,29.87,SE,146,0.0,14.0,46,0.00,,---,0.04,VWS V14.01,2013-06-14 17:39:00,
2013-06-14 13:44:00,83.2,58.4,29.87,South,177,0.0,14.0,43,0.00,,---,0.04,VWS V14.01,2013-06-14 17:44:00,
2013-06-14 13:49:00,83.1,59.6,29.87,ESE,123,0.0,14.0,45,0.00,,---,0.04,VWS V14.01,2013-06-14 17:49:00,
2013-06-14 13:54:00,83.2,59.7,29.87,SE,138,4.0,14.0,45,0.00,,---,0.04,VWS V14.01,2013-06-14 17:54:00,
2013-06-14 13:59:00,83.0,59.5,29.87,SSE,165,5.0,5.0,45,0.00,,---,0.04,VWS V14.01,2013-06-14 17:59:00,
2013-06-14 14:00:00,82.9,59.4,29.87,SE,146,1.0,14.0,45,0.00,,---,0.04,VWS V14.01,2013-06-14 18:00:00,
2013-06-14 14:04:00,83.2,58.4,29.86,SSE,167,2.0,11.0,43,0.00,,---,0.04,VWS V14.01,2013-06-14 18:04:00,
2013-06-14 14:09:00,83.1,58.3,29.86,SE,131,0.0,11.0,43,0.00,,---,0.04,VWS V14.01,2013-06-14 18:09:00,
2013-06-14 14:14:00,82.9,58.8,29.86,South,175,3.0,11.0,44,0.00,,---,0.04,VWS V14.01,2013-06-14 18:14:00,
2013-06-14 14:19:00,83.4,59.2,29.87,East,91,0.0,11.0,44,0.00,,---,0.04,VWS V14.01,2013-06-14 18:19:00,
2013-06-14 14:24:00,83.8,58.9,29.87,SE,126,0.0,11.0,43,0.00,,---,0.04,VWS V14.01,2013-06-14 18:24:00,
2013-06-14 14:29:00,83.5,59.9,29.87,SE,134,1.0,2.0,45,0.00,,---,0.04,VWS V14.01,2013-06-14 18:29:00,
2013-06-14 14:30:00,83.6,58.8,29.87,ESE,119,2.0,11.0,43,0.00,,---,0.04,VWS V14.01,2013-06-14 18:30:00,
2013-06-14 14:34:00,83.7,59.5,29.88,SE,139,7.0,10.0,44,0.00,,---,0.04,VWS V14.01,2013-06-14 18:34:00,
2013-06-14 14:39:00,83.5,58.0,29.87,SSE,154,0.0,12.0,42,0.00,,---,0.04,VWS V14.01,2013-06-14 18:39:00,
2013-06-14 14:44:00,83.3,59.1,29.87,SE,125,4.0,12.0,44,0.00,,---,0.04,VWS V14.01,2013-06-14 18:44:00,
2013-06-14 14:49:00,83.5,58.7,29.87,ENE,78,5.0,12.0,43,0.00,,---,0.04,VWS V14.01,2013-06-14 18:49:00,
2013-06-14 14:54:00,84.0,59.1,29.88,SE,130,0.0,12.0,43,0.00,,---,0.04,VWS V14.01,2013-06-14 18:54:00,
2013-06-14 14:59:00,84.1,58.5,29.88,SSE,153,4.0,8.0,42,0.00,,---,0.04,VWS V14.01,2013-06-14 18:59:00,
2013-06-14 15:00:00,84.1,59.2,29.88,East,84,1.0,12.0,43,0.00,,---,0.04,VWS V14.01,2013-06-14 19:00:00,
2013-06-14 15:04:00,84.4,58.8,29.88,SSE,161,5.0,15.0,42,0.00,,---,0.04,VWS V14.01,2013-06-14 19:04:00,
2013-06-14 15:09:00,84.6,59.0,29.88,SE,140,3.0,15.0,42,0.00,,---,0.04,VWS V14.01,2013-06-14 19:09:00,
2013-06-14 15:14:00,84.7,60.4,29.88,ESE,102,1.0,15.0,44,0.00,,---,0.04,VWS V14.01,2013-06-14 19:14:00,
2013-06-14 15:19:00,84.4,59.5,29.88,SSE,159,5.0,15.0,43,0.00,,---,0.04,VWS V14.01,2013-06-14 19:19:00,
2013-06-14 15:24:00,83.7,59.5,29.88,East,99,0.0,15.0,44,0.00,,---,0.04,VWS V14.01,2013-06-14 19:24:00,
2013-06-14 15:29:00,84.4,59.5,29.87,SSE,153,0.0,1.0,43,0.00,,---,0.04,VWS V14.01,2013-06-14 19:29:00,
2013-06-14 15:30:00,84.4,59.5,29.88,SSE,153,0.0,15.0,43,0.00,,---,0.04,VWS V14.01,2013-06-14 19:30:00,
2013-06-14 15:34:00,84.2,60.6,29.88,SSE,165,0.0,12.0,45,0.00,,---,0.04,VWS V14.01,2013-06-14 19:34:00,
2013-06-14 15:39:00,84.3,60.7,29.88,South,170,2.0,12.0,45,0.00,,---,0.04,VWS V14.01,2013-06-14 19:39:00,
2013-06-14 15:44:00,83.8,59.6,29.88,SSE,159,2.0,12.0,44,0.00,,---,0.04,VWS V14.01,2013-06-14 19:44:00,
2013-06-14 15:49:00,83.4,59.8,29.88,SE,134,9.0,12.0,45,0.00,,---,0.04,VWS V14.01,2013-06-14 19:49:00,
2013-06-14 15:54:00,83.8,59.6,29.89,SE,130,4.0,12.0,44,0.00,,---,0.04,VWS V14.01,2013-06-14 19:54:00,
2013-06-14 15:59:00,84.3,60.7,29.89,SE,136,7.0,8.0,45,0.00,,---,0.04,VWS V14.01,2013-06-14 19:59:00,
2013-06-14 16:00:00,84.2,60.0,29.89,NE,50,0.0,12.0,44,0.00,,---,0.04,VWS V14.01,2013-06-14 20:00:00,
2013-06-14 16:04:00,84.8,61.7,29.88,SE,136,8.0,10.0,46,0.00,,---,0.04,VWS V14.01,2013-06-14 20:04:00,
2013-06-14 16:09:00,85.3,60.9,29.89,SE,135,3.0,10.0,44,0.00,,---,0.04,VWS V14.01,2013-06-14 20:09:00,
2013-06-14 16:14:00,85.4,60.4,29.89,ENE,67,2.0,10.0,43,0.00,,---,0.04,VWS V14.01,2013-06-14 20:14:00,
2013-06-14 16:19:00,85.3,60.9,29.89,SE,138,0.0,10.0,44,0.00,,---,0.04,VWS V14.01,2013-06-14 20:19:00,
2013-06-14 16:24:00,84.5,61.5,29.89,East,100,0.0,10.0,46,0.00,,---,0.04,VWS V14.01,2013-06-14 20:24:00,
2013-06-14 16:29:00,84.1,61.7,29.89,South,178,1.0,4.0,47,0.00,,---,0.04,VWS V14.01,2013-06-14 20:29:00,
2013-06-14 16:30:00,84.1,61.1,29.89,SSE,168,3.0,10.0,46,0.00,,---,0.04,VWS V14.01,2013-06-14 20:30:00,
2013-06-14 16:34:00,83.6,61.8,29.89,South,172,4.0,6.0,48,0.00,,---,0.04,VWS V14.01,2013-06-14 20:34:00,
2013-06-14 16:39:00,83.3,61.0,29.89,South,176,3.0,10.0,47,0.00,,---,0.04,VWS V14.01,2013-06-14 20:39:00,
2013-06-14 16:44:00,83.4,59.8,29.89,South,173,4.0,10.0,45,0.00,,---,0.04,VWS V14.01,2013-06-14 20:44:00,
2013-06-14 16:49:00,82.8,60.5,29.89,SSE,151,1.0,11.0,47,0.00,,---,0.04,VWS V14.01,2013-06-14 20:49:00,
2013-06-14 16:55:00,82.7,60.4,29.89,SE,143,7.0,11.0,47,0.00,,---,0.04,VWS V14.01,2013-06-14 20:55:00,
2013-06-14 17:00:00,83.2,60.3,29.89,South,169,0.0,5.0,46,0.00,,---,0.04,VWS V14.01,2013-06-14 21:00:00,
2013-06-14 17:05:00,83.7,60.1,29.89,SSE,153,0.0,7.0,45,0.00,,---,0.04,VWS V14.01,2013-06-14 21:05:00,
2013-06-14 17:10:00,84.0,60.4,29.89,SSE,149,2.0,8.0,45,0.00,,---,0.04,VWS V14.01,2013-06-14 21:10:00,
2013-06-14 17:15:00,84.0,61.0,29.89,SSW,196,8.0,8.0,46,0.00,,---,0.04,VWS V14.01,2013-06-14 21:15:00,
2013-06-14 17:20:00,83.5,59.9,29.89,SE,140,2.0,9.0,45,0.00,,---,0.04,VWS V14.01,2013-06-14 21:20:00,
2013-06-14 17:25:00,82.9,60.6,29.90,South,175,0.0,9.0,47,0.00,,---,0.04,VWS V14.01,2013-06-14 21:25:00,
2013-06-14 17:30:00,82.7,60.4,29.89,South,184,3.0,7.0,47,0.00,,---,0.04,VWS V14.01,2013-06-14 21:30:00,
2013-06-14 17:35:00,82.3,60.1,29.89,South,175,0.0,7.0,47,0.00,,---,0.04,VWS V14.01,2013-06-14 21:35:00,
2013-06-14 17:40:00,82.1,60.5,29.89,SE,145,1.0,7.0,48,0.00,,---,0.04,VWS V14.01,2013-06-14 21:40:00,
2013-06-14 17:45:00,82.0,60.4,29.89,South,177,1.0,7.0,48,0.00,,---,0.04,VWS V14.01,2013-06-14 21:45:00,
2013-06-14 17:50:00,82.3,61.2,29.89,South,175,0.0,7.0,49,0.00,,---,0.04,VWS V14.01,2013-06-14 21:50:00,
2013-06-14 17:55:00,82.6,60.3,29.89,SE,142,0.0,11.0,47,0.00,,---,0.04,VWS V14.01,2013-06-14 21:55:00,
2013-06-14 18:00:00,82.6,59.8,29.89,SSE,167,5.0,8.0,46,0.00,,---,0.04,VWS V14.01,2013-06-14 22:00:00,
2013-06-14 18:05:00,82.7,59.2,29.90,SSE,150,9.0,11.0,45,0.00,,---,0.04,VWS V14.01,2013-06-14 22:05:00,
2013-06-14 18:10:00,82.3,59.5,29.90,SSE,161,5.0,11.0,46,0.00,,---,0.04,VWS V14.01,2013-06-14 22:10:00,
2013-06-14 18:15:00,81.9,59.1,29.90,SSE,163,0.0,11.0,46,0.00,,---,0.04,VWS V14.01,2013-06-14 22:15:00,
2013-06-14 18:20:00,81.8,59.6,29.90,SSE,165,0.0,11.0,47,0.00,,---,0.04,VWS V14.01,2013-06-14 22:20:00,
2013-06-14 18:25:00,82.0,60.4,29.90,SSE,155,2.0,11.0,48,0.00,,---,0.04,VWS V14.01,2013-06-14 22:25:00,
2013-06-14 18:30:00,82.3,60.7,29.90,SSE,166,0.0,1.0,48,0.00,,---,0.04,VWS V14.01,2013-06-14 22:30:00,
2013-06-14 18:35:00,82.4,60.8,29.90,SSE,154,0.0,3.0,48,0.00,,---,0.04,VWS V14.01,2013-06-14 22:35:00,
2013-06-14 18:40:00,82.5,60.3,29.90,SE,142,5.0,6.0,47,0.00,,---,0.04,VWS V14.01,2013-06-14 22:40:00,
2013-06-14 18:45:00,82.4,59.6,29.90,South,173,2.0,9.0,46,0.00,,---,0.04,VWS V14.01,2013-06-14 22:45:00,
2013-06-14 18:50:00,82.1,59.9,29.90,SSE,150,0.0,9.0,47,0.00,,---,0.04,VWS V14.01,2013-06-14 22:50:00,
2013-06-14 18:55:00,82.0,60.4,29.90,ESE,116,0.0,9.0,48,0.00,,---,0.04,VWS V14.01,2013-06-14 22:55:00,
2013-06-14 19:00:00,81.8,60.8,29.91,SSE,155,1.0,1.0,49,0.00,,---,0.04,VWS V14.01,2013-06-14 23:00:00,
2013-06-14 19:05:00,81.7,60.7,29.91,SSE,153,0.0,5.0,49,0.00,,---,0.04,VWS V14.01,2013-06-14 23:05:00,
2013-06-14 19:10:00,81.6,60.6,29.91,South,176,1.0,6.0,49,0.00,,---,0.04,VWS V14.01,2013-06-14 23:10:00,
2013-06-14 19:15:00,81.4,61.0,29.91,South,176,0.0,6.0,50,0.00,,---,0.04,VWS V14.01,2013-06-14 23:15:00,
2013-06-14 19:20:00,81.5,61.7,29.91,South,176,0.0,6.0,51,0.00,,---,0.04,VWS V14.01,2013-06-14 23:20:00,
2013-06-14 19:25:00,81.4,61.0,29.91,South,176,0.0,6.0,50,0.00,,---,0.04,VWS V14.01,2013-06-14 23:25:00,
2013-06-14 19:30:00,81.2,61.4,29.91,SSE,165,0.0,1.0,51,0.00,,---,0.04,VWS V14.01,2013-06-14 23:30:00,
2013-06-14 19:35:00,81.0,61.2,29.91,South,169,1.0,5.0,51,0.00,,---,0.04,VWS V14.01,2013-06-14 23:35:00,
2013-06-14 19:40:00,80.7,61.5,29.92,SE,142,4.0,6.0,52,0.00,,---,0.04,VWS V14.01,2013-06-14 23:40:00,
2013-06-14 19:45:00,80.5,61.8,29.92,SE,142,0.0,6.0,53,0.00,,---,0.04,VWS V14.01,2013-06-14 23:45:00,
2013-06-14 19:50:00,80.4,61.7,29.92,SE,146,0.0,6.0,53,0.00,,---,0.04,VWS V14.01,2013-06-14 23:50:00,
2013-06-14 19:55:00,80.3,62.2,29.92,SE,146,0.0,6.0,54,0.00,,---,0.04,VWS V14.01,2013-06-14 23:55:00,
2013-06-14 20:00:00,80.1,62.0,29.92,SE,146,0.0,0.0,54,0.00,,---,0.04,VWS V14.01,2013-06-15 00:00:00,
2013-06-14 20:05:00,80.0,62.4,29.93,SE,146,0.0,0.0,55,0.00,,---,0.04,VWS V14.01,2013-06-15 00:05:00,
2013-06-14 20:10:00,79.9,62.3,29.93,SE,146,0.0,0.0,55,0.00,,---,0.04,VWS V14.01,2013-06-15 00:10:00,
2013-06-14 20:15:00,79.7,62.6,29.93,SE,146,0.0,0.0,56,0.00,,---,0.04,VWS V14.01,2013-06-15 00:15:00,
2013-06-14 20:20:00,79.4,63.3,29.93,SE,146,0.0,0.0,58,0.00,,---,0.04,VWS V14.01,2013-06-15 00:20:00,
2013-06-14 20:25:00,78.9,63.4,29.93,SE,146,0.0,0.0,59,0.00,,---,0.04,VWS V14.01,2013-06-15 00:25:00,
2013-06-14 20:30:00,78.6,62.6,29.93,SE,146,0.0,0.0,58,0.00,,---,0.04,VWS V14.01,2013-06-15 00:30:00,
2013-06-14 20:35:00,78.4,62.4,29.94,SE,146,0.0,0.0,58,0.00,,---,0.04,VWS V14.01,2013-06-15 00:35:00,
2013-06-14 20:40:00,78.0,62.5,29.94,SE,146,0.0,0.0,59,0.00,,---,0.04,VWS V14.01,2013-06-15 00:40:00,
2013-06-14 20:45:00,77.8,62.8,29.94,SE,146,0.0,0.0,60,0.00,,---,0.04,VWS V14.01,2013-06-15 00:45:00,
2013-06-14 20:50:00,77.5,62.5,29.94,SE,146,0.0,0.0,60,0.00,,---,0.04,VWS V14.01,2013-06-15 00:50:00,
2013-06-14 20:55:00,77.2,62.7,29.95,SE,146,0.0,0.0,61,0.00,,---,0.04,VWS V14.01,2013-06-15 00:55:00,
2013-06-14 21:00:00,76.9,62.9,29.95,SE,146,0.0,0.0,62,0.00,,---,0.04,VWS V14.01,2013-06-15 01:00:00,
2013-06-14 21:05:00,76.7,63.2,29.95,SE,146,0.0,1.0,63,0.00,,---,0.04,VWS V14.01,2013-06-15 01:05:00,
2013-06-14 21:10:00,76.3,63.7,29.95,SE,146,0.0,1.0,65,0.00,,---,0.04,VWS V14.01,2013-06-15 01:10:00,
2013-06-14 21:16:00,76.0,63.0,29.95,SE,146,0.0,1.0,64,0.00,,---,0.04,VWS V14.01,2013-06-15 01:16:00,
2013-06-14 21:21:00,75.7,63.5,29.95,SE,146,0.0,1.0,66,0.00,,---,0.04,VWS V14.01,2013-06-15 01:21:00,
2013-06-14 21:26:00,75.4,63.7,29.95,SE,146,0.0,1.0,67,0.00,,---,0.04,VWS V14.01,2013-06-15 01:26:00,
2013-06-14 21:30:00,75.1,63.8,29.95,SE,146,0.0,1.0,68,0.00,,---,0.04,VWS V14.01,2013-06-15 01:30:00,
2013-06-14 21:31:00,74.9,63.6,29.95,SE,146,0.0,0.0,68,0.00,,---,0.04,VWS V14.01,2013-06-15 01:31:00,
2013-06-14 21:36:00,74.6,63.8,29.95,SE,146,0.0,1.0,69,0.00,,---,0.04,VWS V14.01,2013-06-15 01:36:00,
2013-06-14 21:41:00,74.5,63.7,29.95,SE,146,0.0,1.0,69,0.00,,---,0.04,VWS V14.01,2013-06-15 01:41:00,
2013-06-14 21:46:00,74.4,63.6,29.95,SE,146,0.0,1.0,69,0.00,,---,0.04,VWS V14.01,2013-06-15 01:46:00,
2013-06-14 21:51:00,74.2,63.4,29.96,SE,146,0.0,1.0,69,0.00,,---,0.04,VWS V14.01,2013-06-15 01:51:00,
2013-06-14 21:56:00,74.1,63.3,29.96,SE,146,0.0,1.0,69,0.00,,---,0.04,VWS V14.01,2013-06-15 01:56:00,
2013-06-14 22:00:00,74.0,63.2,29.96,SE,146,0.0,1.0,69,0.00,,---,0.04,VWS V14.01,2013-06-15 02:00:00,
2013-06-14 22:01:00,74.0,63.6,29.97,SE,146,0.0,1.0,70,0.00,,---,0.04,VWS V14.01,2013-06-15 02:01:00,
2013-06-14 22:06:00,73.9,63.5,29.97,SE,146,0.0,1.0,70,0.00,,---,0.04,VWS V14.01,2013-06-15 02:06:00,
2013-06-14 22:11:00,73.7,63.3,29.97,SE,146,0.0,1.0,70,0.00,,---,0.04,VWS V14.01,2013-06-15 02:11:00,
2013-06-14 22:16:00,73.5,62.7,29.97,SE,146,0.0,1.0,69,0.00,,---,0.04,VWS V14.01,2013-06-15 02:16:00,
2013-06-14 22:21:00,73.4,63.0,29.98,SE,146,0.0,1.0,70,0.00,,---,0.04,VWS V14.01,2013-06-15 02:21:00,
2013-06-14 22:26:00,73.3,62.9,29.98,SE,146,0.0,1.0,70,0.00,,---,0.04,VWS V14.01,2013-06-15 02:26:00,
2013-06-14 22:30:00,73.1,63.2,29.98,SE,146,0.0,1.0,71,0.00,,---,0.04,VWS V14.01,2013-06-15 02:30:00,
2013-06-14 22:31:00,73.1,63.2,29.98,SE,146,0.0,0.0,71,0.00,,---,0.04,VWS V14.01,2013-06-15 02:31:00,
2013-06-14 22:36:00,72.9,63.3,29.98,SE,146,0.0,0.0,72,0.00,,---,0.04,VWS V14.01,2013-06-15 02:36:00,
2013-06-14 22:41:00,72.7,63.2,29.99,SE,146,0.0,0.0,72,0.00,,---,0.04,VWS V14.01,2013-06-15 02:41:00,
2013-06-14 22:46:00,72.4,63.3,29.99,SE,146,0.0,1.0,73,0.00,,---,0.04,VWS V14.01,2013-06-15 02:46:00,
2013-06-14 22:51:00,72.3,63.2,29.99,SE,146,0.0,1.0,73,0.00,,---,0.04,VWS V14.01,2013-06-15 02:51:00,
2013-06-14 22:56:00,72.2,63.1,29.99,SE,146,0.0,1.0,73,0.00,,---,0.04,VWS V14.01,2013-06-15 02:56:00,
2013-06-14 23:00:00,72.1,63.4,30.00,SE,146,0.0,1.0,74,0.00,,---,0.04,VWS V14.01,2013-06-15 03:00:00,
2013-06-14 23:01:00,71.9,63.2,30.00,SE,146,0.0,0.0,74,0.00,,---,0.04,VWS V14.01,2013-06-15 03:01:00,
2013-06-14 23:06:00,71.6,63.3,30.00,SE,146,0.0,0.0,75,0.00,,---,0.04,VWS V14.01,2013-06-15 03:06:00,
2013-06-14 23:11:00,71.3,63.0,30.00,SE,146,0.0,0.0,75,0.00,,---,0.04,VWS V14.01,2013-06-15 03:11:00,
2013-06-14 23:16:00,71.1,62.8,30.00,SE,146,0.0,0.0,75,0.00,,---,0.04,VWS V14.01,2013-06-15 03:16:00,
2013-06-14 23:21:00,70.9,63.0,30.00,SE,146,0.0,0.0,76,0.00,,---,0.04,VWS V14.01,2013-06-15 03:21:00,
2013-06-14 23:26:00,70.9,63.0,30.00,SE,146,0.0,0.0,76,0.00,,---,0.04,VWS V14.01,2013-06-15 03:26:00,
2013-06-14 23:30:00,70.8,62.9,30.00,SE,146,0.0,0.0,76,0.00,,---,0.04,VWS V14.01,2013-06-15 03:30:00,
2013-06-14 23:31:00,70.8,62.9,30.00,SE,146,0.0,0.0,76,0.00,,---,0.04,VWS V14.01,2013-06-15 03:31:00,
2013-06-14 23:36:00,70.6,62.7,30.01,SE,146,0.0,0.0,76,0.00,,---,0.04,VWS V14.01,2013-06-15 03:36:00,
2013-06-14 23:41:00,70.3,62.8,30.01,SE,146,0.0,0.0,77,0.00,,---,0.04,VWS V14.01,2013-06-15 03:41:00,
2013-06-14 23:46:00,70.0,62.8,30.01,SE,146,0.0,0.0,78,0.00,,---,0.04,VWS V14.01,2013-06-15 03:46:00,
2013-06-14 23:51:00,69.8,62.6,30.01,SE,146,0.0,0.0,78,0.00,,---,0.04,VWS V14.01,2013-06-15 03:51:00,
2013-06-14 23:56:00,69.5,62.7,30.01,SE,146,0.0,0.0,79,0.00,,---,0.04,VWS V14.01,2013-06-15 03:56:00,